Location: Lahitte
(43.6596°N, 0.6805°E)
Time: 08:41:23
(UTC+00:00)

Daily predictions for brighter satellites

Satellite Brightness Start Highest point End
(mag) Time Altitude Azimuth Time Altitude Azimuth Time Altitude Azimuth
Cosmos 1980 Rocket 2.3 19:38:02 10° NNW 19:43:46 85° ENE 19:49:26 10° SSE
Cosmos 2228 3.7 19:40:34 10° SSE 19:44:12 31° E 19:47:49 10° NNE
COSMOS 2406 4.1 19:39:31 10° SSE 19:44:22 29° ESE 19:49:11 10° NE
CSL-04 Rocket 3.8 19:41:01 10° SSE 19:46:31 86° WSW 19:51:58 10° NNW
ISS -1.6 19:44:51 10° WNW 19:47:46 27° NNW 19:50:41 10° NE
Cosmos 2084 Rocket 3.6 19:43:54 10° NNW 19:48:04 59° NE 19:52:16 10° SE
Cosmos 1461 3.7 19:45:18 10° SSE 19:48:15 23° ESE 19:51:12 10° ENE
Cosmos 1455 Rocket 3.1 19:44:32 10° S 19:48:51 59° E 19:53:10 10° NNE
Cosmos 1802 Rocket 4.0 19:43:37 10° S 19:49:43 66° E 19:55:48 10° NNE
SL-08 R/B 4.2 19:45:32 10° NE 19:49:44 30° E 19:53:50 10° SSE
Cosmos 1743 2.4 19:47:38 10° N 19:50:34 48° E 19:53:29 10° SSE
Delta 2 Rocket 4.3 19:49:03 10° SW 19:51:15 18° S 19:53:24 10° SE
Terra 2.2 19:47:07 10° SE 19:51:36 48° ENE 19:56:08 10° N
Cosmos 1892 Rocket 3.7 19:48:34 10° N 19:52:50 57° E 19:57:03 10° SSE
Okean O Rocket 2.9 19:52:57 10° ESE 19:56:24 24° ENE 19:59:52 10° NNE
Cosmos 2333 Rocket 3.6 19:54:43 10° N 19:59:26 26° NE 20:04:07 10° ESE
NOSS 3-3 (A) 3.6 19:56:59 10° SSW 20:02:00 77° ESE 20:07:57 10° NE
Okean 1 Rocket 4.2 19:58:03 10° SSW 20:02:18 49° WNW 20:06:38 10° N
Cosmos 1437 Rocket 4.3 20:03:18 11° SE 20:05:18 16° E 20:07:33 10° NE
Cosmos 1452 Rocket 4.5 20:03:33 10° SW 20:08:38 52° WNW 20:13:45 10° NNE
CZ-4B DEB 4.3 20:03:11 10° SSE 20:08:43 88° WSW 20:14:17 10° NNW
Cosmos 2360 Rocket 4.0 20:05:16 10° N 20:09:14 19° NE 20:13:12 10° E
Milstar 3 4.3 20:05:06 10° SW 20:09:50 20° S 20:15:14 10° SE
SL-24 R/B 4.5 20:06:28 10° N 20:10:50 78° WNW 20:15:45 10° SSW
Helios 1A Rocket 2.1 20:07:57 10° NNE 20:11:05 79° ESE 20:14:13 10° S
CZ-4B R/B 3.3 20:06:17 10° SSE 20:11:54 72° ENE 20:17:29 10° N
Cosmos 2233 Rocket 4.0 20:07:12 10° S 20:13:18 63° E 20:19:23 10° NNE
Cosmos 1302 Rocket 4.3 20:10:49 10° SSW 20:15:58 73° WNW 20:21:11 10° NNE
Okean-O 3.3 20:14:53 13° SE 20:18:26 39° ENE 20:22:30 10° N
Cosmos 909 Rocket 4.0 20:12:49 10° SSW 20:19:13 83° ESE 20:25:38 10° NE
Cosmos 2219 Rocket 4.2 20:18:27 10° N 20:21:48 16° NE 20:25:08 10° E
Cosmos 1758 Rocket 4.4 20:18:46 10° N 20:22:49 35° ENE 20:25:50 16° SE
GEOS 3 Rocket 3.9 20:22:54 12° SSE 20:27:48 70° SW 20:33:11 10° NW
ADEOS 3.6 20:25:21 10° SSE 20:30:33 87° WSW 20:35:49 10° NNW
Gbstr 26 Del rocket 4.4 20:27:37 10° WNW 20:32:07 32° SW 20:35:24 13° S
Cosmos 1725 Rocket 4.5 20:27:08 10° SSW 20:33:19 64° W 20:39:32 10° N
Meteor 1-31 Rocket 4.5 20:31:36 10° SSW 20:34:33 26° W 20:37:31 10° NW
NOSS 3-3 (C) 3.8 20:29:25 10° SW 20:34:33 77° NW 20:40:40 10° NE
Cosmos 220 Rocket 4.5 20:31:55 14° SSE 20:34:51 34° ESE 20:38:34 10° NE
Longmarch 3A Rocket 4.3 20:37:36 10° SW 20:38:19 10° SSW 20:38:57 10° SSW
Cosmos 2322 Rocket 3.3 20:37:07 10° N 20:42:12 33° NE 20:45:49 17° ESE
Cosmos 2082 Rocket 3.3 20:38:45 10° SW 20:44:14 48° WNW 20:49:46 10° NNE
Cosmos 1602 Rocket 4.3 20:42:48 10° N 20:46:47 35° ENE 20:48:44 23° ESE
Cosmos 2237 4.5 20:41:11 10° NNW 20:46:54 68° WSW 20:51:30 16° SSE
Tsikada Rocket 4.1 20:41:11 10° N 20:47:21 78° W 20:53:27 10° S
NOSS 3-4 (A) 4.4 20:42:52 10° NNW 20:49:21 49° NE 20:55:07 18° ESE
DELTA 2 R/B (1) 3.7 20:44:33 10° W 20:50:00 56° S 20:53:40 21° ESE
NOSS 3-4 (C) 4.4 20:43:30 10° NNW 20:50:00 48° NE 20:55:45 18° ESE
CZ-4B R/B 3.4 20:49:58 25° ESE 20:51:03 32° ENE 20:54:10 10° N
Cosmos 2369 4.3 20:45:41 10° NNW 20:51:16 55° WSW 20:56:02 14° S
YAOGAN 11 4.1 20:49:34 10° NNE 20:54:02 85° E 20:58:30 10° SSW
Cosmos 2098 Rocket 3.8 20:53:24 25° SE 20:55:25 36° E 20:59:19 10° NNE
Cosmos 2151 2.9 20:53:01 10° N 20:57:07 64° E 20:59:05 28° SSE
Ariane Rocket 3.5 20:59:02 25° SE 21:01:34 44° ENE 21:06:22 10° N
Cosmos 1626 Rocket 3.6 20:58:34 10° N 21:02:57 78° W 21:05:43 22° S
Spot 2 Rocket 3.8 21:03:00 17° S 21:06:51 62° WSW 21:11:51 10° NNW
Cosmos 2278 3.8 21:03:53 10° NNW 21:09:36 70° ENE 21:12:37 29° SE
SPOT 3 Rocket 3.5 21:09:24 28° SSE 21:12:08 71° ENE 21:17:15 10° N
Cosmos 1763 Rocket 4.1 21:10:53 29° SE 21:12:31 37° ESE 21:17:19 10° NE
SL-16 R/B 2.2 21:07:56 10° NNW 21:13:39 86° WSW 21:16:43 28° SSE
USA 186 2.4 21:12:57 32° SW 21:13:40 40° W 21:16:18 10° NNW
USA 290 2.6 21:18:07 43° ENE 21:18:07 43° ENE 21:20:42 10° NNE
Cosmos 1606 Rocket 3.9 21:17:14 38° SE 21:18:18 46° E 21:22:26 10° NNE
Cosmos 1513 Rocket 4.4 21:15:01 16° S 21:20:06 87° E 21:26:17 10° N
Cosmos 1464 Rocket 4.0 21:18:41 26° SSE 21:22:08 62° E 21:28:13 10° NNE
Cosmos 1933 3.6 21:19:51 22° SSW 21:22:08 61° W 21:25:55 10° N
Cosmos 1461 4.5 21:21:03 10° WSW 21:24:22 31° NW 21:27:42 10° NNE
CZ-4B R/B 3.3 21:23:15 36° SSE 21:25:10 75° ENE 21:30:01 10° N
ISS -1.3 21:22:41 10° NW 21:25:18 21° N 21:27:55 10° NE
Okean 1 3.5 21:25:54 41° E 21:25:54 41° E 21:29:09 10° NNE
Cosmos 1726 Rocket 3.9 21:25:49 37° E 21:26:02 38° E 21:29:47 10° NNE
BREEZE-M DEB (TANK) 3.6 21:24:48 10° WNW 21:27:08 22° NNW 21:28:12 16° NNE
COSMOS 2406 4.3 21:22:53 10° SW 21:28:23 45° WNW 21:33:54 10° NNE
Terra 4.1 21:26:06 10° SW 21:29:23 19° W 21:32:40 10° NW
Okean O Rocket 3.0 21:29:45 17° SSW 21:32:25 32° W 21:36:18 10° NNW
Cosmos-2242 4.1 21:37:47 28° E 21:37:47 28° E 21:40:58 10° NNE
Cosmos 1428 Rocket 4.5 21:33:20 10° N 21:39:32 67° E 21:42:00 37° SSE
Cosmos 1437 Rocket 4.3 21:37:04 13° SW 21:39:42 30° WNW 21:42:54 10° N
Cosmos 1072 Rocket 4.5 21:36:50 24° S 21:40:51 88° WNW 21:47:14 10° N
Cosmos 1777 Rocket 3.9 21:36:23 10° NNW 21:41:39 89° ENE 21:43:21 44° SSE
Cosmos 2333 Rocket 2.6 21:38:29 10° NNW 21:44:03 56° WSW 21:46:30 32° S
Cosmos 1833 4.1 21:44:13 30° SSW 21:47:08 75° ESE 21:52:46 10° NNE
Okean 1-7 Rocket 3.6 21:44:46 10° N 21:49:16 82° W 21:50:19 53° S
Cosmos 1503 Rocket 3.9 21:46:30 10° NNW 21:51:43 84° ENE 21:53:04 51° SSE
CZ-2C R/B 3.2 21:52:44 41° NNW 21:52:44 41° NNW 21:54:44 10° NNW
Cosmos 2360 Rocket 2.2 21:48:14 10° NNW 21:53:55 81° WSW 21:55:44 45° SSE
Cosmos 1766 4.4 21:54:46 10° NNE 21:56:45 26° NE 21:56:45 26° NE
Cosmos 2034 Rocket 3.9 21:58:35 38° S 22:01:16 82° E 22:07:37 10° N
Cosmos 1486 Rocket 4.5 21:57:28 10° NNW 22:02:35 53° WSW 22:04:10 39° SSW
Cosmos 2333 4.2 21:58:20 10° NNW 22:04:06 81° WSW 22:05:42 49° S
Cosmos 2219 Rocket 2.1 22:00:57 10° NNW 22:06:40 81° ENE 22:08:05 52° SE
Cosmos 1354 Rocket 3.9 22:01:30 10° NNW 22:06:45 78° ENE 22:07:46 57° SE
Cosmos 1805 4.5 22:06:46 10° NNW 22:09:31 27° W 22:09:31 27° W
Cosmos 540 Rocket 3.5 22:07:44 40° SSW 22:09:38 79° WNW 22:14:48 10° NNE
Cosmos 1825 Rocket 4.0 22:08:58 10° NNW 22:13:13 53° W 22:13:51 48° SW
Nadezhda 4 Rocket 4.4 22:11:36 10° NNW 22:17:34 56° W 22:20:00 35° SSW
Cosmos 2279 Rocket 4.4 22:16:39 40° ESE 22:17:40 43° E 22:23:31 10° NNE
Helios 1A 3.3 22:14:57 10° NNE 22:18:07 51° NE 22:18:07 51° NE
Cosmos 1953 Rocket 3.4 22:15:45 10° N 22:20:05 80° W 22:20:10 79° WSW
RESURS DK-1 3.8 22:17:16 10° N 22:20:38 26° NE 22:20:45 26° ENE
Cosmos 1707 4.3 22:23:33 22° N 22:23:33 22° N 22:24:45 10° N
Aureole 1 Rocket 4.1 22:16:38 10° NNW 22:22:38 71° ENE 22:24:34 48° SE
Cosmos 1634 Rocket 3.9 22:22:33 53° SSE 22:23:56 69° E 22:30:07 10° NNE
Cosmos 2322 Rocket 3.0 22:21:02 10° NW 22:26:17 41° WSW 22:27:37 35° SW
Cosmos 2058 Rocket 3.0 22:30:59 82° NNW 22:30:59 82° NNW 22:35:11 10° N
Cosmos 468 Rocket 3.9 22:30:14 65° SSW 22:31:02 89° ESE 22:36:20 10° NNE
Geosat 3.9 22:29:46 10° NNE 22:34:48 86° WNW 22:35:38 63° SW
BREEZE-M DEB 4.2 22:31:21 10° WSW 22:35:56 88° N 22:47:26 10° E
Cosmos 1076 Rocket 4.4 22:32:51 10° NNW 22:36:48 39° W 22:36:55 39° W
Cosmos 2026 Rocket 4.2 22:33:35 10° NNW 22:39:55 68° W 22:41:40 48° SSW
NOSS 3-4 (A) 4.5 22:33:43 10° NW 22:40:20 45° WSW 22:42:32 37° SSW
Cosmos 44 3.3 22:35:12 10° NW 22:40:37 88° ENE 22:41:01 77° SE
NOSS 3-4 (C) 4.5 22:34:20 10° NW 22:41:00 45° WSW 22:43:10 37° SSW
Cosmos 2237 Rocket 3.8 22:40:13 10° N 22:44:56 26° NE 22:47:09 20° E
USA 234 3.8 22:44:16 10° ENE 22:49:36 39° ESE 22:49:36 39° ESE
Cosmos 1470 4.3 22:47:34 10° N 22:49:19 28° N 22:49:19 28° N
ARIANE 5 R/B 3.2 22:52:41 47° ENE 22:52:41 47° ENE 22:56:42 10° N
ALOS 2 3.5 22:54:46 41° ENE 22:54:46 41° ENE 22:58:37 10° N
Cosmos 2227 Rocket 4.2 22:55:50 14° E 22:55:50 14° E 22:57:55 10° ENE
SL-16 R/B 4.5 22:54:46 10° WNW 22:56:47 12° W 22:58:34 10° WSW
Helios 1B rocket 3.5 22:58:18 36° NNW 22:58:18 36° NNW 23:00:32 10° NNW
COSMOS 2428 2.7 22:53:12 10° NNW 22:58:54 70° ENE 22:59:34 63° ESE
ISS -1.6 22:59:28 10° NW 23:01:11 25° NNW 23:01:11 25° NNW
Cosmos 1898 Rocket 3.3 22:59:16 10° NNW 23:04:29 82° ENE 23:04:33 82° E
CZ-2C R/B 4.2 23:04:15 10° NNE 23:09:26 35° E 23:09:26 35° E
Meteor 1-11 Rocket 3.9 23:04:12 10° N 23:09:45 55° ENE 23:10:10 54° E
Meteor 1-10 Rocket 4.3 23:11:29 64° ESE 23:11:51 66° E 23:17:44 10° NNE
Cosmos 1536 4.4 23:09:14 10° NNW 23:11:30 26° WNW 23:11:30 26° WNW
PSLV R/B 4.3 23:13:57 10° NNE 23:17:16 48° NE 23:17:16 48° NE
Meteor 1-27 Rocket 4.0 23:25:50 55° E 23:25:58 55° E 23:31:34 10° NNE
Cosmos 841 Rocket 3.7 23:27:23 58° W 23:27:48 60° WNW 23:33:00 10° NNE
Cosmos 2297 Rocket 2.1 23:27:59 70° E 23:27:59 70° E 23:33:28 10° NNE
NOSS 0 Rocket 3.7 23:23:58 10° NNW 23:30:11 90° WSW 23:30:48 74° SSE
Cosmos 2180 Rocket 4.5 23:32:26 62° SW 23:33:26 73° W 23:39:46 10° N
Cosmos 1975 4.4 23:31:24 10° NNW 23:33:29 29° NW 23:33:29 29° NW
Spot 4 4.2 23:36:12 58° WNW 23:36:12 58° WNW 23:40:26 10° NNW
Cosmos 2360 Rocket 4.5 23:35:30 10° W 23:36:54 11° W 23:37:28 11° W
Meteor 1-14 Rocket 4.5 23:31:41 10° NNW 23:37:04 53° W 23:37:12 53° W
Cosmos 2221 3.6 23:39:35 38° NW 23:39:35 38° NW 23:42:54 10° N
Cosmos 1812 Rocket 4.2 23:39:58 52° NW 23:39:58 52° NW 23:43:40 10° N
MetOp-A 4.1 23:42:38 64° NE 23:42:38 64° NE 23:47:03 10° N
Cosmos 2322 4.1 23:36:59 10° NW 23:42:12 48° W 23:42:12 48° W
ACS3 Solar Sail 3.1 23:40:44 10° NE 23:45:33 25° E 23:46:10 24° E
Cosmos 2219 Rocket 4.2 23:46:47 10° WNW 23:49:46 15° W 23:49:46 15° W
